Location: Casaglia
(44.0333°N, 11.5167°E)
Time: 19:14:22
(UTC+00:00)

Cosmos 2154 Rocket - Pass Details

Date: 07 June 2020
Orbit: 965 x 997 km, 82.9° (Epoch: 02 July)

Event Time Altitude Azimuth Distance (km) Brightness Sun altitude
Exits shadow 01:49:51 20° 215° (SW) 2,103 5.1 -14.1°
Maximum altitude 01:54:05 50° 283° (WNW) 1,220 4.4 -13.7°
Drops below altitude 10° 02:00:08 10° 358° (N) 2,723 7.1 -13.0°
Sets 02:02:45 0° 4° (N) 3,671 8.0 -12.7°
